• Em Portugal
  • Lista de países
  • Para 7 dias
  • Temperatura da água
  • Mapas de satélite
  • Mapa do tempo
  • Widgets de tempo
  • user-avatar
    Iniciar Sessão

    Previsão horária em Megri

    Hoje, 25 Setembro, Segunda-feira

    Tempo Temperatura Precipitação Vento Pressão Humidade
    00:00 +16°C° 0 mm 3 m/s 626 mmHg 75%
    01:00 +16°C° 0 mm 2 m/s 626 mmHg 77%
    02:00 +15°C° 0 mm 2 m/s 626 mmHg 78%
    03:00 +15°C° 0 mm 2 m/s 626 mmHg 79%
    04:00 +14°C° 0 mm 2 m/s 626 mmHg 80%
    05:00 +14°C° 0 mm 2 m/s 626 mmHg 81%
    06:00 +14°C° 0 mm 2 m/s 626 mmHg 83%
    07:00 +15°C° 0 mm 2 m/s 626 mmHg 73%
    08:00 +17°C° 0 mm 2 m/s 627 mmHg 64%
    09:00 +18°C° 0 mm 2 m/s 627 mmHg 55%
    10:00 +19°C° 0 mm 2 m/s 628 mmHg 48%
    11:00 +21°C° 0 mm 2 m/s 628 mmHg 41%
    12:00 +23°C° 0 mm 2 m/s 628 mmHg 34%
    13:00 +23°C° 0,2 mm 2 m/s 628 mmHg 33%
    14:00 +23°C° 0,2 mm 2 m/s 628 mmHg 33%
    15:00 +24°C° 0,2 mm 2 m/s 627 mmHg 32%
    16:00 +21°C° 0,8 mm 2 m/s 627 mmHg 38%
    17:00 +20°C° 0,8 mm 3 m/s 626 mmHg 44%
    18:00 +19°C° 0,8 mm 3 m/s 626 mmHg 51%
    19:00 +18°C° 0,7 mm 3 m/s 626 mmHg 57%
    20:00 +17°C° 0,7 mm 3 m/s 626 mmHg 63%
    21:00 +16°C° 0,7 mm 3 m/s 626 mmHg 69%
    22:00 +16°C° 0 mm 3 m/s 626 mmHg 71%
    23:00 +14°C° 0 mm 3 m/s 626 mmHg 72%

    Amanhã, 26 Setembro, Terça-feira

    Tempo Temperatura Precipitação Vento Pressão Humidade
    00:00 +14°C° 0 mm 3 m/s 626 mmHg 74%
    01:00 +14°C° 0 mm 2 m/s 626 mmHg 76%
    02:00 +14°C° 0 mm 2 m/s 625 mmHg 77%
    03:00 +14°C° 0 mm 2 m/s 625 mmHg 78%
    04:00 +13°C° 0 mm 2 m/s 625 mmHg 79%
    05:00 +13°C° 0 mm 2 m/s 625 mmHg 80%
    06:00 +13°C° 0 mm 2 m/s 625 mmHg 81%
    07:00 +14°C° 0 mm 2 m/s 625 mmHg 71%
    08:00 +16°C° 0 mm 2 m/s 626 mmHg 61%
    09:00 +18°C° 0 mm 2 m/s 626 mmHg 51%
    10:00 +20°C° 0 mm 1 m/s 627 mmHg 45%
    11:00 +22°C° 0 mm 1 m/s 627 mmHg 39%
    12:00 +23°C° 0 mm 1 m/s 627 mmHg 34%
    13:00 +23°C° 0 mm 1 m/s 626 mmHg 32%
    14:00 +23°C° 0 mm 1 m/s 626 mmHg 31%
    15:00 +24°C° 0 mm 1 m/s 626 mmHg 30%
    16:00 +23°C° 0 mm 2 m/s 625 mmHg 35%
    17:00 +20°C° 0 mm 2 m/s 625 mmHg 40%
    18:00 +19°C° 0 mm 2 m/s 625 mmHg 45%
    19:00 +18°C° 0 mm 3 m/s 625 mmHg 51%
    20:00 +17°C° 0 mm 3 m/s 625 mmHg 57%
    21:00 +17°C° 0 mm 3 m/s 625 mmHg 64%
    22:00 +16°C° 0 mm 3 m/s 625 mmHg 67%
    23:00 +16°C° 0 mm 3 m/s 624 mmHg 70%

    Depois de amanhã, 27 Setembro, Quarta-feira

    Tempo Temperatura Precipitação Vento Pressão Humidade
    00:00 +14°C° 0 mm 3 m/s 624 mmHg 74%
    01:00 +14°C° 0 mm 3 m/s 624 mmHg 75%
    02:00 +13°C° 0 mm 3 m/s 624 mmHg 77%
    03:00 +14°C° 0 mm 2 m/s 623 mmHg 79%
    04:00 +14°C° 0 mm 2 m/s 623 mmHg 79%
    05:00 +13°C° 0 mm 2 m/s 623 mmHg 80%
    06:00 +13°C° 0 mm 2 m/s 623 mmHg 81%
    07:00 +15°C° 0 mm 2 m/s 624 mmHg 71%
    08:00 +17°C° 0 mm 2 m/s 625 mmHg 61%
    09:00 +18°C° 0 mm 2 m/s 625 mmHg 51%
    10:00 +20°C° 0 mm 2 m/s 625 mmHg 43%
    11:00 +21°C° 0 mm 2 m/s 626 mmHg 36%
    12:00 +24°C° 0 mm 3 m/s 626 mmHg 28%
    13:00 +24°C° 0,1 mm 3 m/s 625 mmHg 27%
    14:00 +25°C° 0,1 mm 3 m/s 625 mmHg 26%
    15:00 +25°C° 0,1 mm 4 m/s 625 mmHg 25%
    16:00 +23°C° 0 mm 4 m/s 624 mmHg 31%
    17:00 +21°C° 0 mm 3 m/s 624 mmHg 37%
    18:00 +20°C° 0 mm 3 m/s 624 mmHg 43%
    19:00 +19°C° 0 mm 3 m/s 624 mmHg 49%
    20:00 +17°C° 0 mm 4 m/s 624 mmHg 56%
    21:00 +15°C° 0 mm 4 m/s 623 mmHg 63%
    22:00 +16°C° 0 mm 3 m/s 623 mmHg 67%
    23:00 +14°C° 0 mm 3 m/s 623 mmHg 70%

    28 Setembro, Quinta-feira

    Tempo Temperatura Precipitação Vento Pressão Humidade
    00:00 +13°C° 0 mm 3 m/s 623 mmHg 74%
    01:00 +13°C° 0 mm 3 m/s 623 mmHg 76%
    02:00 +13°C° 0 mm 3 m/s 623 mmHg 77%
    03:00 +12°C° 0 mm 3 m/s 623 mmHg 79%
    04:00 +13°C° 0 mm 2 m/s 623 mmHg 80%
    05:00 +13°C° 0 mm 2 m/s 623 mmHg 81%
    06:00 +12°C° 0 mm 2 m/s 623 mmHg 82%
    07:00 +13°C° 0 mm 2 m/s 624 mmHg 75%
    08:00 +15°C° 0 mm 2 m/s 624 mmHg 68%
    09:00 +16°C° 0 mm 3 m/s 625 mmHg 61%
    10:00 +17°C° 0 mm 2 m/s 625 mmHg 56%
    11:00 +18°C° 0 mm 2 m/s 625 mmHg 51%
    12:00 +19°C° 0 mm 2 m/s 626 mmHg 46%
    13:00 +19°C° 0,1 mm 2 m/s 625 mmHg 45%
    14:00 +19°C° 0,1 mm 3 m/s 625 mmHg 45%
    15:00 +19°C° 0,1 mm 3 m/s 625 mmHg 45%
    16:00 +17°C° 0 mm 4 m/s 625 mmHg 51%
    17:00 +15°C° 0 mm 4 m/s 624 mmHg 58%
    18:00 +13°C° 0 mm 5 m/s 624 mmHg 65%
    19:00 +13°C° 0 mm 5 m/s 624 mmHg 67%
    20:00 +12°C° 0 mm 4 m/s 624 mmHg 69%
    21:00 +11°C° 0 mm 4 m/s 625 mmHg 72%
    22:00 +11°C° 0 mm 4 m/s 624 mmHg 73%
    23:00 +11°C° 0 mm 4 m/s 624 mmHg 74%

    29 Setembro, Sexta-feira

    Tempo Temperatura Precipitação Vento Pressão Humidade
    00:00 +11°C° 0 mm 4 m/s 624 mmHg 75%
    01:00 +10°C° 0 mm 3 m/s 624 mmHg 76%
    02:00 +10°C° 0 mm 3 m/s 624 mmHg 77%
    03:00 +10°C° 0 mm 3 m/s 624 mmHg 78%
    04:00 +10°C° 0 mm 3 m/s 624 mmHg 79%
    05:00 +10°C° 0 mm 3 m/s 625 mmHg 79%
    06:00 +9°C° 0 mm 3 m/s 625 mmHg 80%
    07:00 +11°C° 0 mm 3 m/s 625 mmHg 73%
    08:00 +12°C° 0 mm 3 m/s 626 mmHg 67%
    09:00 +13°C° 0 mm 3 m/s 626 mmHg 60%
    10:00 +16°C° 0 mm 3 m/s 626 mmHg 54%
    11:00 +17°C° 0 mm 2 m/s 626 mmHg 48%
    12:00 +18°C° 0 mm 2 m/s 626 mmHg 41%
    13:00 +19°C° 0 mm 2 m/s 626 mmHg 39%
    14:00 +19°C° 0 mm 2 m/s 626 mmHg 37%
    15:00 +20°C° 0 mm 2 m/s 625 mmHg 35%
    16:00 +18°C° 0 mm 3 m/s 625 mmHg 40%
    17:00 +17°C° 0 mm 3 m/s 625 mmHg 45%
    18:00 +15°C° 0 mm 4 m/s 624 mmHg 51%
    19:00 +14°C° 0 mm 4 m/s 624 mmHg 57%
    20:00 +13°C° 0 mm 4 m/s 624 mmHg 64%
    21:00 +12°C° 0 mm 4 m/s 624 mmHg 71%
    22:00 +11°C° 0 mm 4 m/s 623 mmHg 72%
    23:00 +11°C° 0 mm 3 m/s 623 mmHg 73%

    30 Setembro, Sábado

    Tempo Temperatura Precipitação Vento Pressão Humidade
    00:00 +11°C° 0 mm 3 m/s 623 mmHg 74%
    01:00 +10°C° 0,1 mm 3 m/s 623 mmHg 74%
    02:00 +10°C° 0,1 mm 3 m/s 623 mmHg 75%
    03:00 +10°C° 0,1 mm 3 m/s 623 mmHg 76%
    04:00 +10°C° 0,1 mm 3 m/s 623 mmHg 76%
    05:00 +10°C° 0,1 mm 2 m/s 622 mmHg 76%
    06:00 +10°C° 0,1 mm 2 m/s 622 mmHg 77%
    07:00 +13°C° 0,1 mm 2 m/s 623 mmHg 67%
    08:00 +15°C° 0,1 mm 2 m/s 623 mmHg 56%
    09:00 +17°C° 0,1 mm 2 m/s 624 mmHg 46%
    10:00 +19°C° 0,1 mm 3 m/s 624 mmHg 40%
    11:00 +21°C° 0,1 mm 4 m/s 624 mmHg 34%
    12:00 +23°C° 0,1 mm 4 m/s 624 mmHg 28%
    13:00 +25°C° 0,1 mm 5 m/s 624 mmHg 26%
    14:00 +24°C° 0,1 mm 6 m/s 623 mmHg 24%
    15:00 +26°C° 0,1 mm 7 m/s 623 mmHg 22%
    16:00 +23°C° 0,2 mm 5 m/s 623 mmHg 28%
    17:00 +21°C° 0,2 mm 4 m/s 622 mmHg 34%
    18:00 +19°C° 0,2 mm 3 m/s 622 mmHg 40%
    19:00 +18°C° 0 mm 3 m/s 622 mmHg 46%
    20:00 +16°C° 0 mm 3 m/s 622 mmHg 51%
    21:00 +15°C° 0 mm 2 m/s 622 mmHg 56%
    22:00 +15°C° 0 mm 2 m/s 622 mmHg 58%
    23:00 +14°C° 0 mm 1 m/s 622 mmHg 60%
    Mostrar mais